Boulder City, NV

9:38 PM PST on November 21, 2019 (GMT -0800)
Boulder City

Weather History for KBVU - September, 2019

Change the Weather History Date:

Tuesday, September 24, 2019

  Actual Average (KLAS) Record (KLAS)
Temperature  
Mean Temperature 76 °F -  
Max Temperature 93 °F 91 °F 106 °F (1947)
Min Temperature 60 °F 63 °F 45 °F (1941)
Cooling Degree Days 12    
Growing Degree Days 26 (Base 50)    
Moisture  
Dew Point 38 °F    
Average Humidity 29    
Maximum Humidity 68    
Minimum Humidity 9    
Precipitation  
Precipitation 0.00 in - - ()
Sea Level Pressure  
Sea Level Pressure 29.97 in    
Wind  
Wind Speed 5 mph ()    
Max Wind Speed 17 mph    
Max Gust Speed 24 mph    
Visibility 10.0 miles    
Events      
Averages and records for this station are not official NWS values.
T = Trace of Precipitation, MM = Missing Value Source: Averaged Metar Reports

Daily Weather History Graph

Daily Weather History Graph

Search for Another Location

Airport or City:

Astronomy

Sep. 24, 2019 Rise Set
Actual Time 6:28 AM PDT 6:33 PM PDT
Civil Twilight 6:03 AM PDT 6:59 PM PDT
Nautical Twilight 5:33 AM PDT 7:28 PM PDT
Astronomical Twilight 5:03 AM PDT 7:58 PM PDT
Moon 1:29 AM PDT (9/24) 4:12 PM PDT (9/24)
Length of Visible Light 12h 55m
Length of Day
12h 04m
Waning Crescent, 22% of the Moon is Illuminated
Sep 24
Waning Crescent
Sep 28
New
Oct 5
First Quarter
Oct 13
Full
Oct 21
Last Quarter

Hourly Weather History & Observations

Time (PDT) Temp. Dew Point Humidity Pressure Visibility Wind Dir Wind Speed Gust Speed Precip Events Conditions
12:15 AM 68.0 °F 48.2 °F 49% 30.01 in 10.0 mi NNE 6.9 mph - N/A   Scattered Clouds
12:35 AM 69.8 °F 46.4 °F 43% 30.02 in 10.0 mi NNE 5.8 mph - N/A   Clear
12:55 AM 68.0 °F 48.2 °F 49% 30.01 in 10.0 mi North 5.8 mph - N/A   Clear
1:15 AM 66.2 °F 46.4 °F 49% 30.01 in 10.0 mi North 6.9 mph - N/A   Clear
1:35 AM 68.0 °F 48.2 °F 49% 30.02 in 10.0 mi SE 3.5 mph - N/A   Clear
3:55 AM 64.4 °F 48.2 °F 56% 30.03 in 10.0 mi East 3.5 mph - N/A   Mostly Cloudy
4:15 AM 60.8 °F 48.2 °F 63% 30.03 in 10.0 mi Calm Calm - N/A   Mostly Cloudy
4:35 AM 60.8 °F 48.2 °F 63% 30.03 in 10.0 mi Calm Calm - N/A   Mostly Cloudy
4:55 AM 60.8 °F 48.2 °F 63% 30.03 in 10.0 mi Calm Calm - N/A   Scattered Clouds
5:15 AM 60.8 °F 50.0 °F 68% 30.03 in 10.0 mi North 3.5 mph - N/A   Partly Cloudy
5:35 AM 60.8 °F 48.2 °F 63% 30.04 in 10.0 mi Calm Calm - N/A   Scattered Clouds
5:55 AM 64.4 °F 48.2 °F 56% 30.04 in 10.0 mi Calm Calm - N/A   Mostly Cloudy
6:15 AM 64.4 °F 46.4 °F 52% 30.04 in 10.0 mi West 4.6 mph - N/A   Partly Cloudy
6:35 AM 60.8 °F 50.0 °F 68% 30.05 in 10.0 mi Calm Calm - N/A   Clear
6:55 AM 60.8 °F 48.2 °F 63% 30.05 in 10.0 mi Calm Calm - N/A   Clear
7:15 AM 62.6 °F 48.2 °F 59% 30.05 in 10.0 mi Calm Calm - N/A   Clear
7:35 AM 66.2 °F 48.2 °F 52% 30.06 in 10.0 mi Calm Calm - N/A   Clear
7:55 AM 69.8 °F 44.6 °F 40% 30.06 in 10.0 mi WNW 4.6 mph - N/A   Clear
8:15 AM 71.6 °F 44.6 °F 38% 30.07 in 10.0 mi Variable 5.8 mph - N/A   Clear
8:35 AM 68.0 °F 48.2 °F 49% 30.08 in 10.0 mi SE 3.5 mph - N/A   Clear
8:55 AM 69.8 °F 48.2 °F 46% 30.07 in 10.0 mi Calm Calm - N/A   Clear
9:15 AM 73.4 °F 48.2 °F 41% 30.07 in 10.0 mi Calm Calm - N/A   Clear
9:35 AM 75.2 °F 46.4 °F 36% 30.06 in 10.0 mi Calm Calm - N/A   Clear
9:55 AM 78.8 °F 41.0 °F 26% 30.06 in 10.0 mi NNE 10.4 mph 16.1 mph N/A   Clear
10:15 AM 80.6 °F 37.4 °F 21% 30.05 in 10.0 mi NNE 11.5 mph 17.3 mph N/A   Clear
10:35 AM 82.4 °F 35.6 °F 19% 30.05 in 10.0 mi NNE 17.3 mph 24.2 mph N/A   Clear
10:55 AM 84.2 °F 35.6 °F 18% 30.04 in 10.0 mi North 16.1 mph - N/A   Clear
11:15 AM 84.2 °F 33.8 °F 16% 30.03 in 10.0 mi North 17.3 mph - N/A   Clear
11:35 AM 86.0 °F 35.6 °F 17% 30.02 in 10.0 mi North 15.0 mph - N/A   Clear
11:55 AM 86.0 °F 35.6 °F 17% 30.02 in 10.0 mi NE 12.7 mph 19.6 mph N/A   Clear
12:15 PM 86.0 °F 35.6 °F 17% 30.01 in 10.0 mi ENE 13.8 mph - N/A   Clear
12:35 PM 86.0 °F 35.6 °F 17% 30.00 in 10.0 mi NE 15.0 mph - N/A   Clear
12:55 PM 86.0 °F 35.6 °F 17% 29.98 in 10.0 mi NE 13.8 mph - N/A   Clear
1:15 PM 87.8 °F 33.8 °F 15% 29.97 in 10.0 mi NE 12.7 mph 18.4 mph N/A   Clear
1:35 PM 87.8 °F 32.0 °F 14% 29.97 in 10.0 mi NNE 12.7 mph - N/A   Clear
1:55 PM 87.8 °F 32.0 °F 14% 29.96 in 10.0 mi NE 10.4 mph 17.3 mph N/A   Clear
2:15 PM 89.6 °F 30.2 °F 12% 29.95 in 10.0 mi NNE 10.4 mph - N/A   Clear
2:35 PM 89.6 °F 30.2 °F 12% 29.94 in 10.0 mi Variable 5.8 mph 12.7 mph N/A   Clear
2:55 PM 89.6 °F 30.2 °F 12% 29.93 in 10.0 mi Variable 4.6 mph 12.7 mph N/A   Clear
3:15 PM 91.4 °F 30.2 °F 11% 29.92 in 10.0 mi North 10.4 mph - N/A   Clear
3:35 PM 91.4 °F 28.4 °F 10% 29.91 in 10.0 mi North 8.1 mph - N/A   Clear
3:55 PM 91.4 °F 28.4 °F 10% 29.91 in 10.0 mi NE 5.8 mph 13.8 mph N/A   Clear
4:15 PM 91.4 °F 28.4 °F 10% 29.90 in 10.0 mi NE 8.1 mph - N/A   Clear
4:35 PM 91.4 °F 28.4 °F 10% 29.89 in 10.0 mi NE 8.1 mph - N/A   Clear
4:55 PM 91.4 °F 28.4 °F 10% 29.89 in 10.0 mi North 11.5 mph - N/A   Clear
5:15 PM 93.2 °F 26.6 °F 9% 29.88 in 10.0 mi Variable 6.9 mph 17.3 mph N/A   Clear
5:35 PM 91.4 °F 26.6 °F 10% 29.88 in 10.0 mi North 11.5 mph - N/A   Clear
5:55 PM 91.4 °F 24.8 °F 9% 29.88 in 10.0 mi North 10.4 mph - N/A   Clear
6:15 PM 89.6 °F 26.6 °F 10% 29.87 in 10.0 mi NNW 11.5 mph - N/A   Clear
6:35 PM 89.6 °F 26.6 °F 10% 29.87 in 10.0 mi North 11.5 mph 18.4 mph N/A   Clear
6:55 PM 87.8 °F 28.4 °F 12% 29.87 in 10.0 mi North 8.1 mph - N/A   Clear
7:15 PM 84.2 °F 30.2 °F 14% 29.87 in 10.0 mi NNE 5.8 mph - N/A   Clear
7:35 PM 82.4 °F 32.0 °F 16% 29.88 in 10.0 mi ENE 5.8 mph - N/A   Clear
7:55 PM 80.6 °F 37.4 °F 21% 29.88 in 10.0 mi Calm Calm - N/A   Clear
8:15 PM 78.8 °F 35.6 °F 21% 29.88 in 10.0 mi North 4.6 mph - N/A   Clear
8:35 PM 80.6 °F 30.2 °F 16% 29.88 in 10.0 mi Calm Calm - N/A   Clear
8:55 PM 77.0 °F 35.6 °F 22% 29.88 in 10.0 mi Variable 3.5 mph - N/A   Clear
9:15 PM 77.0 °F 33.8 °F 21% 29.88 in 10.0 mi North 4.6 mph - N/A   Clear
9:35 PM 77.0 °F 32.0 °F 19% 29.88 in 10.0 mi NW 4.6 mph - N/A   Clear
9:55 PM 75.2 °F 35.6 °F 24% 29.88 in 10.0 mi North 6.9 mph - N/A   Clear
10:15 PM 75.2 °F 33.8 °F 22% 29.88 in 10.0 mi NNW 5.8 mph - N/A   Clear
10:35 PM 77.0 °F 33.8 °F 21% 29.88 in 10.0 mi North 4.6 mph - N/A   Clear
10:55 PM 73.4 °F 37.4 °F 27% 29.88 in 10.0 mi North 4.6 mph - N/A   Clear
11:15 PM 73.4 °F 35.6 °F 25% 29.88 in 10.0 mi NNW 3.5 mph - N/A   Partly Cloudy
11:35 PM 73.4 °F 33.8 °F 23% 29.88 in 10.0 mi West 4.6 mph - N/A   Scattered Clouds
11:55 PM 73.4 °F 32.0 °F 22% 29.88 in 10.0 mi North 6.9 mph - N/A   Scattered Clouds